Find OV2-5

NORAD ID: 3428 Int'l Des: 1968-081 Owner: SAMSO Country: US operational
MEOCIRCULAR

現在のビュー

3D地球を読み込み中...

About OV2-5

OV2-5 (NORAD 3428) is a satellite by SAMSO of US. It operates in MEO, CIRCULAR orbit

次回通過

Passes for default location (London). Set your location on the main map for personalized predictions.

高度履歴

Loading altitude history...

軌道要素

1 3428U 68081A 26194.89697902 -.00000297 00000-0 00000+0 0 9990
2 3428 2.0580 51.2581 0079114 283.7738 18.0531 1.01560939121327
Epoch: Jul 13, 2026 • Age: 8 hours

現在のステータス

高度 35677.3 km
遠地点 / 近地点 N/A
速度 3.07 km/s
衛星直下点 1.85°N, 100.52°E
タイプ other

Most Searched